Time,TemperatureF,DewpointF,PressureIn,WindDirection,WindDirectionDegrees,WindSpeedMPH,WindSpeedGustMPH,Humidity,HourlyPrecipIn,Conditions,Clouds,dailyrainin,SoftwareType,DateUTC
2013-02-06 00:01:00,67.0,60.0,-100.00,North,355,4.0,11.0,79,0.00,,,0.01,,2013-02-06 10:01:00,
2013-02-06 00:11:00,67.0,60.0,-100.00,North,355,4.0,11.0,79,0.00,,,0.01,,2013-02-06 10:11:00,
2013-02-06 00:21:00,67.0,60.0,-100.00,North,355,4.0,11.0,79,0.00,,,0.01,,2013-02-06 10:21:00,
2013-02-06 00:31:00,67.0,60.0,-100.00,North,355,4.0,11.0,79,0.00,,,0.01,,2013-02-06 10:31:00,
2013-02-06 00:41:00,68.0,61.0,-100.00,NNW,340,5.0,9.0,78,0.00,,,0.01,,2013-02-06 10:41:00,
2013-02-06 01:01:00,68.0,61.0,-100.00,NNW,340,5.0,9.0,78,0.00,,,0.01,,2013-02-06 11:01:00,
2013-02-06 01:11:00,68.0,61.0,-100.00,NNW,340,5.0,9.0,78,0.00,,,0.01,,2013-02-06 11:11:00,
2013-02-06 01:22:00,68.0,61.0,-100.00,NNW,340,5.0,9.0,78,0.00,,,0.01,,2013-02-06 11:22:00,
2013-02-06 01:32:00,68.0,61.0,-100.00,NNW,340,5.0,9.0,78,0.00,,,0.01,,2013-02-06 11:32:00,
2013-02-06 01:41:00,68.0,61.0,-100.00,NNW,346,5.0,10.0,78,0.00,,,0.00,,2013-02-06 11:41:00,
2013-02-06 02:01:00,68.0,61.0,-100.00,NNW,346,5.0,10.0,78,0.00,,,0.00,,2013-02-06 12:01:00,
2013-02-06 02:12:00,68.0,61.0,-100.00,NNW,346,5.0,10.0,78,0.00,,,0.00,,2013-02-06 12:12:00,
2013-02-06 02:22:00,68.0,61.0,-100.00,NNW,346,5.0,10.0,78,0.00,,,0.00,,2013-02-06 12:22:00,
2013-02-06 02:32:00,68.0,61.0,-100.00,NNW,346,5.0,10.0,78,0.00,,,0.00,,2013-02-06 12:32:00,
2013-02-06 02:41:00,68.0,60.0,-100.00,NNW,344,5.0,10.0,76,0.00,,,0.00,,2013-02-06 12:41:00,
2013-02-06 03:01:00,68.0,60.0,-100.00,NNW,344,5.0,10.0,76,0.00,,,0.00,,2013-02-06 13:01:00,
2013-02-06 03:11:00,68.0,60.0,-100.00,NNW,344,5.0,10.0,76,0.00,,,0.00,,2013-02-06 13:11:00,
2013-02-06 03:21:00,68.0,60.0,-100.00,NNW,344,5.0,10.0,76,0.00,,,0.00,,2013-02-06 13:21:00,
2013-02-06 03:31:00,68.0,60.0,-100.00,NNW,344,5.0,10.0,76,0.00,,,0.00,,2013-02-06 13:31:00,
2013-02-06 03:41:00,68.0,62.0,-100.00,NNW,341,7.0,11.0,80,0.00,,,0.00,,2013-02-06 13:41:00,
2013-02-06 04:01:00,68.0,62.0,-100.00,NNW,341,7.0,11.0,80,0.00,,,0.00,,2013-02-06 14:01:00,
2013-02-06 04:11:00,68.0,62.0,-100.00,NNW,341,7.0,11.0,80,0.00,,,0.00,,2013-02-06 14:11:00,
2013-02-06 04:21:00,68.0,62.0,-100.00,NNW,341,7.0,11.0,80,0.00,,,0.00,,2013-02-06 14:21:00,
2013-02-06 04:31:00,68.0,62.0,-100.00,NNW,341,7.0,11.0,80,0.00,,,0.00,,2013-02-06 14:31:00,
2013-02-06 04:41:00,69.0,61.0,-100.00,NNE,15,6.0,12.0,76,0.00,,,0.00,,2013-02-06 14:41:00,
2013-02-06 05:01:00,69.0,61.0,-100.00,NNE,15,6.0,12.0,76,0.00,,,0.00,,2013-02-06 15:01:00,
2013-02-06 05:11:00,69.0,61.0,-100.00,NNE,15,6.0,12.0,76,0.00,,,0.00,,2013-02-06 15:11:00,
2013-02-06 05:21:00,69.0,61.0,-100.00,NNE,15,6.0,12.0,76,0.00,,,0.00,,2013-02-06 15:21:00,
2013-02-06 05:31:00,69.0,61.0,-100.00,NNE,15,6.0,12.0,76,0.00,,,0.00,,2013-02-06 15:31:00,
2013-02-06 05:41:00,69.0,61.0,-100.00,North,9,6.0,10.0,77,0.00,,,0.00,,2013-02-06 15:41:00,
2013-02-06 06:01:00,69.0,61.0,-100.00,North,9,6.0,10.0,77,0.00,,,0.00,,2013-02-06 16:01:00,
2013-02-06 06:11:00,69.0,61.0,-100.00,North,9,6.0,10.0,77,0.00,,,0.00,,2013-02-06 16:11:00,
2013-02-06 06:21:00,69.0,61.0,-100.00,North,9,6.0,10.0,77,0.00,,,0.00,,2013-02-06 16:21:00,
2013-02-06 06:32:00,69.0,61.0,-100.00,North,9,6.0,10.0,77,0.00,,,0.00,,2013-02-06 16:32:00,
2013-02-06 06:41:00,68.0,61.0,-100.00,North,352,5.0,10.0,78,0.00,,,0.00,,2013-02-06 16:41:00,
2013-02-06 07:01:00,68.0,61.0,-100.00,North,352,5.0,10.0,78,0.00,,,0.00,,2013-02-06 17:01:00,
2013-02-06 07:11:00,68.0,61.0,-100.00,North,352,5.0,10.0,78,0.00,,,0.00,,2013-02-06 17:11:00,
2013-02-06 07:21:00,68.0,61.0,-100.00,North,352,5.0,10.0,78,0.00,,,0.00,,2013-02-06 17:21:00,
2013-02-06 07:32:00,68.0,61.0,-100.00,North,352,5.0,10.0,78,0.00,,,0.00,,2013-02-06 17:32:00,
2013-02-06 07:41:00,69.0,62.0,-100.00,North,358,4.0,10.0,79,0.00,,,0.00,,2013-02-06 17:41:00,
2013-02-06 08:01:00,69.0,62.0,-100.00,North,358,4.0,10.0,79,0.00,,,0.00,,2013-02-06 18:01:00,
2013-02-06 08:11:00,69.0,62.0,-100.00,North,358,4.0,10.0,79,0.00,,,0.00,,2013-02-06 18:11:00,
2013-02-06 08:22:00,69.0,62.0,-100.00,North,358,4.0,10.0,79,0.00,,,0.00,,2013-02-06 18:22:00,
2013-02-06 08:32:00,69.0,62.0,-100.00,North,358,4.0,10.0,79,0.00,,,0.00,,2013-02-06 18:32:00,
2013-02-06 08:41:00,70.0,63.0,-100.00,NNE,12,6.0,12.0,79,0.00,,,-99.99,,2013-02-06 18:41:00,
2013-02-06 09:01:00,70.0,63.0,-100.00,NNE,12,6.0,12.0,79,0.00,,,-99.99,,2013-02-06 19:01:00,
2013-02-06 09:11:00,70.0,63.0,-100.00,NNE,12,6.0,12.0,79,0.00,,,-99.99,,2013-02-06 19:11:00,
2013-02-06 09:21:00,70.0,63.0,-100.00,NNE,12,6.0,12.0,79,0.00,,,-99.99,,2013-02-06 19:21:00,
2013-02-06 09:31:00,70.0,63.0,-100.00,NNE,12,6.0,12.0,79,0.00,,,-99.99,,2013-02-06 19:31:00,
2013-02-06 09:41:00,74.0,66.0,-100.00,NE,52,7.0,10.0,76,0.00,,,0.00,,2013-02-06 19:41:00,
2013-02-06 10:01:00,74.0,66.0,-100.00,NE,52,7.0,10.0,76,0.00,,,0.00,,2013-02-06 20:01:00,
2013-02-06 10:11:00,74.0,66.0,-100.00,NE,52,7.0,10.0,76,0.00,,,0.00,,2013-02-06 20:11:00,
2013-02-06 10:21:00,74.0,66.0,-100.00,NE,52,7.0,10.0,76,0.00,,,0.00,,2013-02-06 20:21:00,
2013-02-06 10:31:00,74.0,66.0,-100.00,NE,52,7.0,10.0,76,0.00,,,0.00,,2013-02-06 20:31:00,
2013-02-06 10:41:00,76.0,65.0,-100.00,ENE,68,8.0,14.0,68,0.00,,,0.00,,2013-02-06 20:41:00,
2013-02-06 11:01:00,76.0,65.0,-100.00,ENE,68,8.0,14.0,68,0.00,,,0.00,,2013-02-06 21:01:00,
2013-02-06 11:11:00,76.0,65.0,-100.00,ENE,68,8.0,14.0,68,0.00,,,0.00,,2013-02-06 21:11:00,
2013-02-06 11:21:00,76.0,65.0,-100.00,ENE,68,8.0,14.0,68,0.00,,,0.00,,2013-02-06 21:21:00,
2013-02-06 11:31:00,76.0,65.0,-100.00,ENE,68,8.0,14.0,68,0.00,,,0.00,,2013-02-06 21:31:00,
2013-02-06 11:41:00,76.0,65.0,-100.00,East,83,11.0,21.0,68,0.00,,,0.00,,2013-02-06 21:41:00,
2013-02-06 12:01:00,76.0,65.0,-100.00,East,83,11.0,21.0,68,0.00,,,0.00,,2013-02-06 22:01:00,
2013-02-06 12:11:00,76.0,65.0,-100.00,East,83,11.0,21.0,68,0.00,,,0.00,,2013-02-06 22:11:00,
2013-02-06 12:21:00,76.0,65.0,-100.00,East,83,11.0,21.0,68,0.00,,,0.00,,2013-02-06 22:21:00,
2013-02-06 12:31:00,76.0,65.0,-100.00,East,83,11.0,21.0,68,0.00,,,0.00,,2013-02-06 22:31:00,
2013-02-06 12:41:00,77.0,65.0,-100.00,ENE,65,10.0,16.0,66,0.00,,,0.00,,2013-02-06 22:41:00,
2013-02-06 13:01:00,77.0,65.0,-100.00,ENE,65,10.0,16.0,66,0.00,,,0.00,,2013-02-06 23:01:00,
2013-02-06 13:11:00,77.0,65.0,-100.00,ENE,65,10.0,16.0,66,0.00,,,0.00,,2013-02-06 23:11:00,
2013-02-06 13:21:00,77.0,65.0,-100.00,ENE,65,10.0,16.0,66,0.00,,,0.00,,2013-02-06 23:21:00,
2013-02-06 13:31:00,77.0,65.0,-100.00,ENE,65,10.0,16.0,66,0.00,,,0.00,,2013-02-06 23:31:00,
2013-02-06 13:41:00,76.0,63.0,-100.00,ENE,58,10.0,16.0,65,0.00,,,0.00,,2013-02-06 23:41:00,
2013-02-06 14:01:00,76.0,63.0,-100.00,ENE,58,10.0,16.0,65,0.00,,,0.00,,2013-02-07 00:01:00,
2013-02-06 14:11:00,76.0,63.0,-100.00,ENE,58,10.0,16.0,65,0.00,,,0.00,,2013-02-07 00:11:00,
2013-02-06 14:21:00,76.0,63.0,-100.00,ENE,58,10.0,16.0,65,0.00,,,0.00,,2013-02-07 00:21:00,
2013-02-06 14:31:00,76.0,63.0,-100.00,ENE,58,10.0,16.0,65,0.00,,,0.00,,2013-02-07 00:31:00,
2013-02-06 14:41:00,77.0,64.0,-100.00,ENE,69,8.0,16.0,65,0.00,,,0.00,,2013-02-07 00:41:00,
2013-02-06 15:01:00,77.0,64.0,-100.00,ENE,69,8.0,16.0,65,0.00,,,0.00,,2013-02-07 01:01:00,
2013-02-06 15:11:00,77.0,64.0,-100.00,ENE,69,8.0,16.0,65,0.00,,,0.00,,2013-02-07 01:11:00,
2013-02-06 15:21:00,77.0,64.0,-100.00,ENE,69,8.0,16.0,65,0.00,,,0.00,,2013-02-07 01:21:00,
2013-02-06 15:31:00,77.0,64.0,-100.00,ENE,69,8.0,16.0,65,0.00,,,0.00,,2013-02-07 01:31:00,
2013-02-06 15:41:00,77.0,64.0,-100.00,ENE,68,8.0,16.0,64,0.00,,,0.00,,2013-02-07 01:41:00,
2013-02-06 16:01:00,77.0,64.0,-100.00,ENE,68,8.0,16.0,64,0.00,,,0.00,,2013-02-07 02:01:00,
2013-02-06 16:11:00,77.0,64.0,-100.00,ENE,68,8.0,16.0,64,0.00,,,0.00,,2013-02-07 02:11:00,
2013-02-06 16:21:00,77.0,64.0,-100.00,ENE,68,8.0,16.0,64,0.00,,,0.00,,2013-02-07 02:21:00,
2013-02-06 16:31:00,77.0,64.0,-100.00,ENE,68,8.0,16.0,64,0.00,,,0.00,,2013-02-07 02:31:00,
2013-02-06 16:41:00,76.0,62.0,-100.00,ENE,60,8.0,15.0,63,0.00,,,0.00,,2013-02-07 02:41:00,
2013-02-06 17:02:00,76.0,62.0,-100.00,ENE,60,8.0,15.0,63,0.00,,,0.00,,2013-02-07 03:02:00,
2013-02-06 17:11:00,76.0,62.0,-100.00,ENE,60,8.0,15.0,63,0.00,,,0.00,,2013-02-07 03:11:00,
2013-02-06 17:21:00,76.0,62.0,-100.00,ENE,60,8.0,15.0,63,0.00,,,0.00,,2013-02-07 03:21:00,
2013-02-06 17:31:00,76.0,62.0,-100.00,ENE,60,8.0,15.0,63,0.00,,,0.00,,2013-02-07 03:31:00,
2013-02-06 17:41:00,73.0,62.0,-100.00,ENE,58,7.0,15.0,69,0.00,,,-99.99,,2013-02-07 03:41:00,
2013-02-06 18:01:00,73.0,62.0,-100.00,ENE,58,7.0,15.0,69,0.00,,,-99.99,,2013-02-07 04:01:00,
2013-02-06 18:11:00,73.0,62.0,-100.00,ENE,58,7.0,15.0,69,0.00,,,-99.99,,2013-02-07 04:11:00,
2013-02-06 18:22:00,73.0,62.0,-100.00,ENE,58,7.0,15.0,69,0.00,,,-99.99,,2013-02-07 04:22:00,
2013-02-06 18:31:00,73.0,62.0,-100.00,ENE,58,7.0,15.0,69,0.00,,,-99.99,,2013-02-07 04:31:00,
2013-02-06 18:41:00,73.0,64.0,-100.00,NNE,31,8.0,13.0,73,0.00,,,0.00,,2013-02-07 04:41:00,
2013-02-06 19:01:00,73.0,64.0,-100.00,NNE,31,8.0,13.0,73,0.00,,,0.00,,2013-02-07 05:01:00,
2013-02-06 19:11:00,73.0,64.0,-100.00,NNE,31,8.0,13.0,73,0.00,,,0.00,,2013-02-07 05:11:00,
2013-02-06 19:21:00,73.0,64.0,-100.00,NNE,31,8.0,13.0,73,0.00,,,0.00,,2013-02-07 05:21:00,
2013-02-06 19:32:00,73.0,64.0,-100.00,NNE,31,8.0,13.0,73,0.00,,,0.00,,2013-02-07 05:32:00,
2013-02-06 19:41:00,71.0,64.0,-100.00,NNW,341,6.0,12.0,79,0.00,,,0.00,,2013-02-07 05:41:00,
2013-02-06 20:02:00,71.0,64.0,-100.00,NNW,341,6.0,12.0,79,0.00,,,0.00,,2013-02-07 06:02:00,
2013-02-06 20:11:00,71.0,64.0,-100.00,NNW,341,6.0,12.0,79,0.00,,,0.00,,2013-02-07 06:11:00,
2013-02-06 20:22:00,71.0,64.0,-100.00,NNW,341,6.0,12.0,79,0.00,,,0.00,,2013-02-07 06:22:00,
2013-02-06 20:31:00,71.0,64.0,-100.00,NNW,341,6.0,12.0,79,0.00,,,0.00,,2013-02-07 06:31:00,
2013-02-06 20:41:00,71.0,65.0,-100.00,North,355,5.0,10.0,81,0.00,,,-99.99,,2013-02-07 06:41:00,
2013-02-06 21:01:00,71.0,65.0,-100.00,North,355,5.0,10.0,81,0.00,,,-99.99,,2013-02-07 07:01:00,
2013-02-06 21:11:00,71.0,65.0,-100.00,North,355,5.0,10.0,81,0.00,,,-99.99,,2013-02-07 07:11:00,
2013-02-06 21:21:00,71.0,65.0,-100.00,North,355,5.0,10.0,81,0.00,,,-99.99,,2013-02-07 07:21:00,
2013-02-06 21:31:00,71.0,65.0,-100.00,North,355,5.0,10.0,81,0.00,,,-99.99,,2013-02-07 07:31:00,
2013-02-06 21:41:00,71.0,64.0,-100.00,North,1,5.0,10.0,78,0.00,,,0.00,,2013-02-07 07:41:00,
2013-02-06 22:01:00,71.0,64.0,-100.00,North,1,5.0,10.0,78,0.00,,,0.00,,2013-02-07 08:01:00,
2013-02-06 22:11:00,71.0,64.0,-100.00,North,1,5.0,10.0,78,0.00,,,0.00,,2013-02-07 08:11:00,
2013-02-06 22:21:00,71.0,64.0,-100.00,North,1,5.0,10.0,78,0.00,,,0.00,,2013-02-07 08:21:00,
2013-02-06 22:31:00,71.0,64.0,-100.00,North,1,5.0,10.0,78,0.00,,,0.00,,2013-02-07 08:31:00,
2013-02-06 22:41:00,71.0,63.0,-100.00,NNW,344,5.0,9.0,76,0.00,,,0.00,,2013-02-07 08:41:00,
2013-02-06 23:01:00,71.0,63.0,-100.00,NNW,344,5.0,9.0,76,0.00,,,0.00,,2013-02-07 09:01:00,
2013-02-06 23:11:00,71.0,63.0,-100.00,NNW,344,5.0,9.0,76,0.00,,,0.00,,2013-02-07 09:11:00,
2013-02-06 23:21:00,71.0,63.0,-100.00,NNW,344,5.0,9.0,76,0.00,,,0.00,,2013-02-07 09:21:00,
2013-02-06 23:31:00,71.0,63.0,-100.00,NNW,344,5.0,9.0,76,0.00,,,0.00,,2013-02-07 09:31:00,
2013-02-06 23:41:00,70.0,62.0,-100.00,North,356,4.0,11.0,77,0.00,,,0.00,,2013-02-07 09:41:00,